New Chitose, Japan

10:52 AM JST on February 07, 2016 (GMT +0900)
New Chitose

Weather History for RJCC - September, 2013

Change the Weather History Date:

Wednesday, September 11, 2013

  Actual Average (WUND) Record (WUND)
Temperature  
Mean Temperature 67 °F -  
Max Temperature 75 °F 64 °F - (-1)
Min Temperature 59 °F 46 °F - (-1)
Cooling Degree Days 2    
Growing Degree Days 17 (Base 50)    
Moisture  
Dew Point 63 °F    
Average Humidity 86    
Maximum Humidity 100    
Minimum Humidity 73    
Precipitation  
Precipitation 0.00 in - - ()
Sea Level Pressure  
Sea Level Pressure 30.02 in    
Wind  
Wind Speed 7 mph ()    
Max Wind Speed 22 mph    
Max Gust Speed -    
Visibility 6.1 miles    
Events Rain    
Averages and records for this station are not official NWS values.
T = Trace of Precipitation, MM = Missing Value Source: Averaged Metar Reports

Daily Weather History Graph

Daily Weather History Graph

Search for Another Location

Airport or City:

Trip Planner

Search our weather history database for the weather conditions in past years. The results will help you decide how hot, cold, wet, or windy it might be!

Date:

Astronomy

Sep. 11, 2013 Rise Set
Actual Time 5:08 AM JST 5:50 PM JST
Civil Twilight 4:39 AM JST 6:19 PM JST
Nautical Twilight 4:05 AM JST 6:53 PM JST
Astronomical Twilight 3:30 AM JST 7:28 PM JST
Moon 11:05 AM JST (9/11) 9:03 PM JST (9/11)
Length of Visible Light 13h 39m
Length of Day
12h 42m
Waxing Crescent, 33% of the Moon is Illuminated
Sep 11
Waxing Crescent
Sep 13
First Quarter
Sep 19
Full
Sep 27
Last Quarter
Oct 5
New

Hourly Weather History & Observations

Time (JST) Temp. Dew Point Humidity Pressure Visibility Wind Dir Wind Speed Gust Speed Precip Events Conditions
12:00 AM 62.6 °F 59.0 °F 88% 30.04 in 3.7 mi SE 3.5 mph - N/A   Mostly Cloudy
12:30 AM 60.8 °F 59.0 °F 94% 30.04 in 5.0 mi SE 3.5 mph - N/A   Scattered Clouds
1:00 AM 60.8 °F 60.8 °F 100% 30.04 in 6.2 mi South 2.3 mph - N/A Rain Light Rain Showers
1:30 AM 60.8 °F 59.0 °F 94% 30.04 in 6.2 mi South 3.5 mph - N/A   Mostly Cloudy
2:00 AM 60.8 °F 59.0 °F 94% 30.04 in 6.2 mi South 3.5 mph - N/A   Scattered Clouds
2:30 AM 60.8 °F 59.0 °F 94% 30.04 in 6.2 mi South 2.3 mph - N/A   Partly Cloudy
3:00 AM 60.8 °F 59.0 °F 94% 30.04 in 6.2 mi South 3.5 mph - N/A   Partly Cloudy
3:30 AM 59.0 °F 57.2 °F 94% 30.04 in 6.2 mi South 2.3 mph - N/A   Partly Cloudy
4:00 AM 59.0 °F 57.2 °F 94% 30.04 in 6.2 mi Variable 1.2 mph - N/A   Partly Cloudy
4:30 AM 59.0 °F 57.2 °F 94% 30.04 in 6.2 mi Variable 2.3 mph - N/A   Partly Cloudy
5:00 AM 59.0 °F 57.2 °F 94% 30.06 in 6.2 mi Variable 1.2 mph - N/A   Scattered Clouds
5:30 AM 59.0 °F 57.2 °F 94% 30.04 in 6.2 mi North 2.3 mph - N/A   Partly Cloudy
6:00 AM 60.8 °F 59.0 °F 94% 30.04 in 6.2 mi Variable 1.2 mph - N/A   Partly Cloudy
6:30 AM 62.6 °F 60.8 °F 94% 30.04 in 6.2 mi Variable 2.3 mph - N/A   Scattered Clouds
7:00 AM 64.4 °F 60.8 °F 88% 30.04 in 6.2 mi South 2.3 mph - N/A   Scattered Clouds
7:30 AM 66.2 °F 62.6 °F 88% 30.04 in 6.2 mi Variable 2.3 mph - N/A   Partly Cloudy
8:00 AM 69.8 °F 62.6 °F 78% 30.04 in 6.2 mi SSE 9.2 mph - N/A   Scattered Clouds
8:30 AM 71.6 °F 64.4 °F 78% 30.04 in 6.2 mi SSE 11.5 mph - N/A   Scattered Clouds
9:00 AM 73.4 °F 64.4 °F 73% 30.04 in 6.2 mi SSE 11.5 mph - N/A   Scattered Clouds
9:30 AM 71.6 °F 64.4 °F 78% 30.04 in 6.2 mi SSE 18.4 mph - N/A   Mostly Cloudy
10:00 AM 71.6 °F 64.4 °F 78% 30.04 in 6.2 mi SSE 17.3 mph - N/A   Mostly Cloudy
10:30 AM 73.4 °F 66.2 °F 78% 30.04 in 6.2 mi SSE 20.7 mph - N/A   Mostly Cloudy
11:00 AM 73.4 °F 64.4 °F 73% 30.04 in 6.2 mi South 19.6 mph - N/A   Scattered Clouds
11:30 AM 73.4 °F 66.2 °F 78% 30.04 in 6.2 mi SSE 19.6 mph - N/A   Scattered Clouds
12:00 PM 73.4 °F 66.2 °F 78% 30.04 in 6.2 mi SSE 19.6 mph - N/A   Partly Cloudy
12:30 PM 73.4 °F 66.2 °F 78% 30.01 in 6.2 mi SSE 21.9 mph - N/A   Scattered Clouds
1:00 PM 73.4 °F 66.2 °F 78% 30.01 in 6.2 mi SSE 19.6 mph - N/A   Scattered Clouds
1:30 PM 75.2 °F 66.2 °F 73% 30.01 in 6.2 mi SSE 20.7 mph - N/A   Mostly Cloudy
2:00 PM 73.4 °F 66.2 °F 78% 30.01 in 6.2 mi SSE 20.7 mph - N/A   Mostly Cloudy
2:30 PM 73.4 °F 66.2 °F 78% 30.01 in 6.2 mi SSE 17.3 mph - N/A   Scattered Clouds
3:00 PM 73.4 °F 66.2 °F 78% 30.01 in 6.2 mi SSE 18.4 mph - N/A   Scattered Clouds
3:30 PM 73.4 °F 66.2 °F 78% 30.01 in 6.2 mi SSE 15.0 mph - N/A   Scattered Clouds
4:00 PM 73.4 °F 66.2 °F 78% 30.01 in 6.2 mi SSE 16.1 mph - N/A   Partly Cloudy
4:30 PM 71.6 °F 66.2 °F 83% 30.01 in 6.2 mi SSE 12.7 mph - N/A   Scattered Clouds
5:00 PM 71.6 °F 66.2 °F 83% 30.01 in 6.2 mi SSE 12.7 mph - N/A   Mostly Cloudy
5:30 PM 71.6 °F 66.2 °F 83% 30.01 in 6.2 mi SSE 10.4 mph - N/A   Mostly Cloudy
6:00 PM 69.8 °F 66.2 °F 88% 30.01 in 6.2 mi SSE 9.2 mph - N/A   Mostly Cloudy
6:30 PM 69.8 °F 66.2 °F 88% 30.01 in 6.2 mi SSE 13.8 mph - N/A   Scattered Clouds
7:00 PM 69.8 °F 66.2 °F 88% 30.01 in 6.2 mi SSE 12.7 mph - N/A   Scattered Clouds
7:30 PM 69.8 °F 66.2 °F 88% 30.01 in 6.2 mi SSE 13.8 mph - N/A   Scattered Clouds
8:00 PM 69.8 °F 66.2 °F 88% 30.01 in 6.2 mi SSE 10.4 mph - N/A   Scattered Clouds
8:30 PM 69.8 °F 66.2 °F 88% 30.01 in 6.2 mi SE 5.8 mph - N/A   Mostly Cloudy
9:00 PM 69.8 °F 66.2 °F 88% 30.01 in 6.2 mi SSE 9.2 mph - N/A   Mostly Cloudy
9:30 PM 69.8 °F 66.2 °F 88% 30.01 in 6.2 mi SE 8.1 mph - N/A   Mostly Cloudy
10:00 PM 68.0 °F 66.2 °F 94% 30.01 in 6.2 mi SE 9.2 mph - N/A   Mostly Cloudy
10:30 PM 68.0 °F 66.2 °F 94% 29.98 in 6.2 mi SSE 11.5 mph - N/A   Scattered Clouds
11:00 PM 68.0 °F 64.4 °F 88% 29.98 in 6.2 mi SSE 9.2 mph - N/A   Mostly Cloudy
11:30 PM 68.0 °F 64.4 °F 88% 29.98 in 6.2 mi South 8.1 mph - N/A   Mostly Cloudy